TimeCST,TemperatureF,Dew PointF,Humidity,Sea Level PressureIn,VisibilityMPH,Wind Direction,Wind SpeedMPH,Gust SpeedMPH,PrecipitationIn,Events,Conditions,WindDirDegrees,DateUTC
12:45 AM,42.8,26.6,53,30.46,6.0,North,4.6,-,N/A,,Clear,350,2013-03-06 06:45:00
1:45 AM,41.0,28.4,61,30.44,6.0,West,3.5,-,N/A,,Clear,280,2013-03-06 07:45:00
2:45 AM,37.4,26.6,65,29.75,6.0,South,3.5,-,N/A,,Clear,190,2013-03-06 08:45:00
3:45 AM,33.8,23.0,65,30.43,6.0,Calm,Calm,-,N/A,,Clear,0,2013-03-06 09:45:00
4:45 AM,35.6,24.8,65,30.42,5.0,Calm,Calm,-,N/A,,Clear,0,2013-03-06 10:45:00
5:45 AM,32.0,24.8,75,29.99,3.0,Calm,Calm,-,N/A,,Haze,0,2013-03-06 11:45:00
6:45 AM,32.0,24.8,75,30.44,2.0,Calm,Calm,-,N/A,,Clear,0,2013-03-06 12:45:00
7:44 AM,35.6,26.6,70,30.47,3.0,Calm,Calm,-,N/A,,Clear,0,2013-03-06 13:44:00
8:47 AM,44.6,26.6,49,30.03,4.0,Calm,Calm,-,N/A,,Clear,0,2013-03-06 14:47:00
9:45 AM,55.4,21.2,26,30.49,5.0,Calm,Calm,-,N/A,,Clear,0,2013-03-06 15:45:00
10:43 AM,62.6,15.8,16,30.49,5.0,SE,9.2,-,N/A,,Clear,140,2013-03-06 16:43:00
11:44 AM,68.0,14.0,12,29.88,5.0,SSE,11.5,-,N/A,,Clear,150,2013-03-06 17:44:00
12:46 PM,68.0,14.0,12,30.42,6.0,South,11.5,-,N/A,,Clear,190,2013-03-06 18:46:00
1:48 PM,71.6,14.0,11,30.39,7.0,South,10.4,-,N/A,,Scattered Clouds,170,2013-03-06 19:48:00
2:45 PM,69.8,17.6,14,29.86,7.0,SSE,12.7,-,N/A,,Scattered Clouds,150,2013-03-06 20:45:00
3:49 PM,69.8,17.6,14,30.34,7.0,SSE,17.3,-,N/A,,Scattered Clouds,150,2013-03-06 21:49:00
4:44 PM,68.0,17.6,15,30.34,7.0,SSE,15.0,-,N/A,,Scattered Clouds,160,2013-03-06 22:44:00
5:45 PM,66.2,19.4,17,29.94,7.0,South,13.8,-,N/A,,Scattered Clouds,170,2013-03-06 23:45:00
6:46 PM,62.6,19.4,19,30.37,7.0,East,11.5,-,N/A,,Scattered Clouds,100,2013-03-07 00:46:00
7:43 PM,59.0,21.2,23,30.40,7.0,South,8.1,-,N/A,,Scattered Clouds,170,2013-03-07 01:43:00
8:40 PM,55.4,21.2,26,30.12,7.0,Calm,Calm,-,N/A,,Scattered Clouds,0,2013-03-07 02:40:00
9:45 PM,48.2,23.0,37,30.44,7.0,NE,4.6,-,N/A,,Scattered Clouds,50,2013-03-07 03:45:00
10:45 PM,48.2,23.0,37,30.44,7.0,ENE,4.6,-,N/A,,Partly Cloudy,70,2013-03-07 04:45:00
11:45 PM,44.6,23.0,43,29.92,6.0,SSE,4.6,-,N/A,,Clear,160,2013-03-07 05:45:00